Change the Weather History Date:

Saturday, November 16, 2013

  Actual Average (KSPI) Record (KSPI)
Temperature  
Mean Temperature 52 °F 43 °F  
Max Temperature 60 °F 52 °F 76 °F (2001)
Min Temperature 44 °F 34 °F 7 °F (1959)
Degree Days  
Heating Degree Days 13 22  
Month to date heating degree days 297  
Since 1 July heating degree days 707  
Cooling Degree Days 0 0  
Month to date cooling degree days 0  
Year to date cooling degree days 1121  
Growing Degree Days 2 (Base 50)    
Moisture  
Dew Point 51 °F    
Average Humidity 86    
Maximum Humidity 94    
Minimum Humidity 72    
Precipitation  
Precipitation 0.02 in 0.10 in 1.21 in (1987)
Month to date precipitation 1.68  
Year to date precipitation 33.38  
Snow  
Snow 0.00 in 0.00 in 0.80 in (1951)
Month to date snowfall 0.1  
Since 1 July snowfall 0.1  
Since 1 September snowfall 0.1  
Snow Depth -    
Sea Level Pressure  
Sea Level Pressure 29.79 in    
Wind  
Wind Speed 17 mph (South)    
Max Wind Speed 30 mph    
Max Gust Speed 37 mph    
Visibility 10 miles    
Events Rain , Thunderstorm    
T = Trace of Precipitation, MM = Missing Value Source: NWS Daily Summary

Daily Weather History Graph

Daily Weather History Graph

Search for Another Location

Airport or City:

Trip Planner

Search our weather history database for the weather conditions in past years. The results will help you decide how hot, cold, wet, or windy it might be!

Date:

Astronomy

Nov. 16, 2013 Rise Set
Actual Time 6:42 AM CST 4:41 PM CST
Civil Twilight 6:13 AM CST 5:09 PM CST
Nautical Twilight 5:41 AM CST 5:42 PM CST
Astronomical Twilight 5:09 AM CST 6:14 PM CST
Moon 4:16 PM CST (11/16) 5:39 AM CST (11/16)
Length of Visible Light 10h 56m
Length of Day
9h 58m
Waxing Gibbous, 99% of the Moon is Illuminated
Nov 16
Waxing Gibbous
Nov 17
Full
Nov 25
Last Quarter
Dec 2
New
Dec 9
First Quarter

Hourly Weather History & Observations

Time (CST) Temp. Windchill Dew Point Humidity Pressure Visibility Wind Dir Wind Speed Gust Speed Precip Events Conditions
12:15 AM 44.6 °F 38.4 °F 41.0 °F 87% 29.94 in 10.0 mi SSE 12.7 mph 17.3 mph N/A   Overcast
12:35 AM 44.6 °F 38.8 °F 41.0 °F 87% 29.94 in 10.0 mi SSE 11.5 mph 18.4 mph N/A   Overcast
12:55 AM 44.6 °F 37.8 °F 41.0 °F 87% 29.93 in 10.0 mi SSE 15.0 mph 18.4 mph N/A   Overcast
1:15 AM 44.6 °F 38.1 °F 41.0 °F 87% 29.93 in 10.0 mi SSE 13.8 mph - N/A   Scattered Clouds
1:35 AM 44.6 °F 38.1 °F 42.8 °F 93% 29.93 in 10.0 mi SSE 13.8 mph - N/A   Scattered Clouds
1:55 AM 44.6 °F 38.1 °F 42.8 °F 93% 29.92 in 10.0 mi SSE 13.8 mph 18.4 mph N/A   Mostly Cloudy
2:15 AM 46.4 °F 40.7 °F 42.8 °F 87% 29.92 in 10.0 mi South 12.7 mph 19.6 mph N/A   Overcast
2:35 AM 46.4 °F 40.7 °F 44.6 °F 93% 29.91 in 10.0 mi South 12.7 mph - N/A   Overcast
2:55 AM 48.2 °F - 44.6 °F 87% 29.90 in 10.0 mi South 17.3 mph 20.7 mph N/A   Overcast
3:15 AM 48.2 °F - 44.6 °F 87% 29.90 in 10.0 mi South 16.1 mph 21.9 mph N/A   Mostly Cloudy
3:35 AM 48.2 °F - 44.6 °F 87% 29.90 in 10.0 mi South 17.3 mph 20.7 mph N/A   Mostly Cloudy
3:55 AM 48.2 °F - 44.6 °F 87% 29.90 in 10.0 mi South 16.1 mph 21.9 mph N/A   Mostly Cloudy
4:15 AM 46.4 °F 40.4 °F 44.6 °F 93% 29.89 in 7.0 mi South 13.8 mph 20.7 mph N/A   Scattered Clouds
4:35 AM 48.2 °F - 46.4 °F 93% 29.89 in 10.0 mi South 13.8 mph 21.9 mph N/A   Scattered Clouds
4:55 AM 48.2 °F - 46.4 °F 93% 29.89 in 10.0 mi South 17.3 mph - N/A   Clear
5:15 AM 50.0 °F - 46.4 °F 87% 29.88 in 10.0 mi SSE 16.1 mph 25.3 mph N/A   Mostly Cloudy
5:35 AM 50.0 °F - 46.4 °F 87% 29.89 in 10.0 mi South 13.8 mph 24.2 mph N/A   Overcast
5:55 AM 50.0 °F - 46.4 °F 87% 29.88 in 10.0 mi South 15.0 mph 20.7 mph N/A   Overcast
6:15 AM 50.0 °F - 46.4 °F 87% 29.88 in 10.0 mi South 16.1 mph 24.2 mph N/A   Overcast
6:35 AM 51.8 °F - 48.2 °F 88% 29.88 in 10.0 mi South 16.1 mph 27.6 mph N/A   Overcast
6:55 AM 51.8 °F - 48.2 °F 88% 29.89 in 10.0 mi South 17.3 mph 26.5 mph N/A   Overcast
7:15 AM 51.8 °F - 48.2 °F 88% 29.89 in 5.0 mi SSE 19.6 mph 27.6 mph N/A   Overcast
7:35 AM 51.8 °F - 50.0 °F 94% 29.89 in 3.0 mi South 19.6 mph 24.2 mph N/A   Overcast
7:55 AM 51.8 °F - 50.0 °F 94% 29.88 in 4.0 mi South 17.3 mph 24.2 mph N/A   Overcast
8:15 AM 51.8 °F - 50.0 °F 94% 29.88 in 5.0 mi South 20.7 mph 28.8 mph N/A   Overcast
8:35 AM 51.8 °F - 50.0 °F 94% 29.87 in 7.0 mi SSE 17.3 mph 28.8 mph N/A   Overcast
8:55 AM 51.8 °F - 50.0 °F 94% 29.86 in 7.0 mi South 21.9 mph 27.6 mph N/A   Overcast
9:15 AM 53.6 °F - 50.0 °F 88% 29.86 in 10.0 mi South 19.6 mph 27.6 mph N/A   Overcast
9:35 AM 53.6 °F - 50.0 °F 88% 29.85 in 10.0 mi South 17.3 mph 28.8 mph N/A   Overcast
9:55 AM 53.6 °F - 50.0 °F 88% 29.84 in 10.0 mi South 21.9 mph 33.4 mph N/A   Overcast
10:15 AM 55.4 °F - 50.0 °F 82% 29.83 in 10.0 mi South 25.3 mph 32.2 mph N/A   Overcast
10:35 AM 55.4 °F - 50.0 °F 82% 29.83 in 10.0 mi South 24.2 mph 35.7 mph N/A   Overcast
10:55 AM 57.2 °F - 50.0 °F 77% 29.82 in 10.0 mi South 21.9 mph 32.2 mph N/A   Overcast
11:15 AM 59.0 °F - 51.8 °F 77% 29.81 in 10.0 mi South 29.9 mph 36.8 mph N/A   Mostly Cloudy
11:35 AM 59.0 °F - 50.0 °F 72% 29.81 in 10.0 mi South 19.6 mph 34.5 mph N/A   Mostly Cloudy
11:55 AM 59.0 °F - 50.0 °F 72% 29.79 in 10.0 mi South 25.3 mph 35.7 mph N/A   Overcast
12:15 PM 59.0 °F - 51.8 °F 77% 29.79 in 10.0 mi South 23.0 mph 35.7 mph N/A   Mostly Cloudy
12:35 PM 59.0 °F - 51.8 °F 77% 29.79 in 10.0 mi South 21.9 mph 27.6 mph N/A   Overcast
12:55 PM 59.0 °F - 51.8 °F 77% 29.78 in 10.0 mi South 21.9 mph 29.9 mph N/A   Overcast
1:15 PM 59.0 °F - 51.8 °F 77% 29.77 in 10.0 mi South 21.9 mph 31.1 mph N/A   Overcast
1:35 PM 59.0 °F - 51.8 °F 77% 29.76 in 10.0 mi South 23.0 mph 31.1 mph N/A   Overcast
1:55 PM 59.0 °F - 51.8 °F 77% 29.75 in 10.0 mi South 18.4 mph 24.2 mph N/A   Overcast
2:15 PM 59.0 °F - 51.8 °F 77% 29.74 in 10.0 mi South 20.7 mph 29.9 mph N/A   Overcast
2:35 PM 59.0 °F - 51.8 °F 77% 29.75 in 10.0 mi South 21.9 mph 33.4 mph N/A   Overcast
2:55 PM 59.0 °F - 51.8 °F 77% 29.74 in 10.0 mi South 23.0 mph 29.9 mph N/A   Overcast
3:15 PM 57.2 °F - 53.6 °F 88% 29.74 in 10.0 mi South 19.6 mph 26.5 mph N/A   Overcast
3:35 PM 57.2 °F - 53.6 °F 88% 29.72 in 10.0 mi South 18.4 mph 25.3 mph N/A   Overcast
3:55 PM 57.2 °F - 53.6 °F 88% 29.72 in 10.0 mi South 18.4 mph 29.9 mph N/A   Overcast
4:15 PM 57.2 °F - 53.6 °F 88% 29.70 in 7.0 mi SSE 19.6 mph 28.8 mph N/A Rain Light Rain
4:35 PM 57.2 °F - 53.6 °F 88% 29.67 in 10.0 mi SSE 23.0 mph 27.6 mph N/A Rain Light Rain
4:55 PM 57.2 °F - 53.6 °F 88% 29.67 in 7.0 mi SSE 26.5 mph 33.4 mph 0.01 in Rain Rain
5:15 PM 57.2 °F - 53.6 °F 88% 29.65 in 10.0 mi SSE 27.6 mph 35.7 mph 0.01 in   Overcast
5:35 PM 57.2 °F - 55.4 °F 94% 29.65 in 10.0 mi South 29.9 mph 34.5 mph 0.01 in   Overcast
5:55 PM 59.0 °F - 55.4 °F 88% 29.66 in 10.0 mi South 25.3 mph 33.4 mph 0.01 in Thunderstorm Overcast
6:15 PM 59.0 °F - 55.4 °F 88% 29.67 in 10.0 mi South 20.7 mph 36.8 mph N/A   Overcast
6:35 PM 59.0 °F - 55.4 °F 88% 29.65 in 10.0 mi South 27.6 mph 35.7 mph N/A   Overcast
6:55 PM 59.0 °F - 55.4 °F 88% 29.67 in 10.0 mi South 24.2 mph 32.2 mph N/A   Overcast
7:15 PM 59.0 °F - 55.4 °F 88% 29.66 in 10.0 mi South 23.0 mph 32.2 mph N/A   Overcast
7:35 PM 59.0 °F - 55.4 °F 88% 29.66 in 10.0 mi South 19.6 mph 26.5 mph N/A Thunderstorm Unknown
7:55 PM 59.0 °F - 55.4 °F 88% 29.67 in 10.0 mi South 17.3 mph 26.5 mph N/A   Light Drizzle
8:15 PM 59.0 °F - 55.4 °F 88% 29.68 in 10.0 mi South 17.3 mph 24.2 mph N/A Thunderstorm Overcast
8:35 PM 59.0 °F - 55.4 °F 88% 29.67 in 10.0 mi South 16.1 mph 23.0 mph N/A Thunderstorm Overcast
8:55 PM 59.0 °F - 55.4 °F 88% 29.68 in 10.0 mi South 15.0 mph 21.9 mph N/A   Overcast
9:15 PM 59.0 °F - 55.4 °F 88% 29.69 in 10.0 mi South 11.5 mph - N/A   Overcast
9:35 PM 60.8 °F - 55.4 °F 82% 29.69 in 10.0 mi SSW 13.8 mph - N/A Thunderstorm Thunderstorm
9:55 PM 60.8 °F - 57.2 °F 88% 29.67 in 10.0 mi South 11.5 mph 18.4 mph N/A   Overcast
10:15 PM 60.8 °F - 57.2 °F 88% 29.66 in 10.0 mi South 13.8 mph 19.6 mph N/A   Overcast
10:35 PM 60.8 °F - 57.2 °F 88% 29.66 in 10.0 mi South 15.0 mph - N/A   Overcast
10:55 PM 60.8 °F - 57.2 °F 88% 29.65 in 10.0 mi SSW 11.5 mph 21.9 mph N/A   Overcast
11:15 PM 60.8 °F - 57.2 °F 88% 29.64 in 10.0 mi SSW 16.1 mph 21.9 mph N/A Thunderstorm Mostly Cloudy
11:35 PM 60.8 °F - 57.2 °F 88% 29.64 in 10.0 mi SSW 16.1 mph 19.6 mph N/A   Scattered Clouds
11:55 PM 60.8 °F - 57.2 °F 88% 29.63 in 10.0 mi SSW 17.3 mph - N/A   Clear